COSMOS 1275 DEB, 42212

Orbit data source: Space-Track

COSMOS 1275 DEB, 42212 is space debris in LEO originally from a launch on Thu, 04 Jun 1981 UTC launched from the Plesetsk Missile And Space Complex (PKMTR). Debris objects in space refer to the collection of defunct objects orbiting the Earth. Examples of debris include non-operational satellites, rocket bodies, and fragments generated from explosions, collisions, or faulty payload assembly.

Loading next visibility...
Identifier
42212, 1981-053UC
Orbit
LEO
Country
Flag of CISCIS
Related business
Manufacturer
Unknown
Mission
Spacecraft
Bus & Motor
Unknown
Mass
Unknown
Launch date (UTC)
1981-06-04 (44 years ago)
Launch vehicle
Unknown
Launch site
Plesetsk Missile And Space Complex (PKMTR)
Object type
Payload
Rocket body
Debris
Shape & HBR
Unknown shape, 0.1 m
Radar Cross Section
Small (<0.1 m²)

Expand to show TLE details & history
Last TLE update: 2 days ago

TLE from 2 days ago
0 COSMOS 1275 DEB
1 42212U 81053UC  25292.82666874  .00001450  00000-0  16728-2 0  9991
2 42212  83.0496 318.0421 0149310 218.6753 270.4421 13.64040451591229
Epoch: 2025-10-19T19:50Z
TLE epoch observation values (Epoch: 2025-10-19T19:50:24.179Z)
Latitude
52.14318°
Longitude
162.92713°
Altitude
1,030.284 km
Speed
7.341 km/s
True Right ascension
08h 36m 15s
True Declination
51° 58' 57"
Sunlit
Object was in daylight at epoch
Visualization orbit readout
Latitude
Unknown
Longitude
Unknown
Altitude
Unknown
Speed
Unknown
Apparent Right ascension
Unknown
Apparent Declination
Unknown
Sunlit
N/A
Visualization observer readout
Local Sidereal Time
06:26:20
Azimuth
Unknown
Elevation
Unknown
Doppler factor
Unknown
Orbital elements
Apogee altitude
1,128.638 km
Perigee altitude
907.769 km
Semi-major axis
7,396.34 km
Eccentricity
0.01493
Inclination
83.0496°
RAAN
318.0421°
Arg. of periapsis
218.6753°
True anomaly
268.73119°
Mean anomaly
270.4421°
Eccentric anomaly
269.58664°
Mean motion
3.41207 °/min
Orbital period
105.51 mins
BSTAR
0.0016728

Documentation

Showing up to 5 results
|